[[{"header":{"parameterUnit":"m.s-1","parameterCategory":1,"la1":30.2991,"la2":30.254,"lo1":-89.0895,"lo2":-89.0444,"dy":0.0017,"dx":0.0017,"nx":28,"ny":28,"refTime":"2025-07-19T03:00:00:Z","depth":0,"parameterNumber":2,"parameterNumberName":"U-component_of_WINDS"},"data":[0,0,0,0,0,0,0,0,0,0,0,0,0,0,0,0,0,0,0,0,0,0,0,0,0,0,0,0,0,0,0,0,0,0,0,0,0,0,0,0,0,0,0,0,0,0,0,0,0,0,0,0,0,0,0,0,0,0,0.1154,0.1155,0,0.1275,0.1277,0.1278,0.1336,0.1336,0.1336,0.1336,0.146,0.1463,0.1467,0,0,0,0,0,0,0,0,0,0,0,0,0,0.0972,0.0975,0.1154,0.1156,0.1157,0.1275,0.1277,0.1278,0.1336,0.1336,0.1336,0.1336,0.1459,0.1463,0.1467,0,0,0,0,0,0,0,0,0,0,0,0,0,0.1068,0.0976,0.1154,0.12,0.1206,0.1275,0.1277,0.1279,0.1336,0.1336,0.1336,0.1336,0.1458,0.1463,0.1468,0.1499,0,0,0.1483,0.1485,0,0,0,0,0,0,0,0,0.1062,0.1074,0.1192,0.1197,0.1203,0.1291,0.1258,0.1353,0.1336,0.1287,0.1336,0.1336,0.1404,0.1413,0.1436,0.1505,0.1511,0.1483,0.1486,0.1488,0.149,0,0,0,0,0,0,0,0.1055,0.1069,0.1202,0.1194,0.1201,0.1215,0.1228,0.1276,0.1344,0.1291,0.1296,0.1309,0.1407,0.1431,0.1439,0.1512,0.1483,0.1488,0.1491,0.1493,0.1613,0.1613,0,0,0,0,0,0,0.1041,0.1063,0.1198,0.1206,0.1131,0.1218,0.1233,0.1263,0.1344,0.1356,0.1309,0.1311,0.1423,0.1433,0.1444,0.1487,0.1488,0.1493,0.1496,0.1613,0.1613,0.1613,0,0,0,0,0,0,0.1037,0.1053,0.1193,0.1136,0.1155,0.1221,0.1254,0.1265,0.1289,0.1357,0.137,0.1321,0.1423,0.1437,0.1485,0.1492,0.1495,0.15,0.1613,0.1613,0.1613,0.1572,0,0,0,0,0,0,0.1032,0.1051,0.1064,0.1136,0.1158,0.1233,0.1254,0.1268,0.1298,0.1302,0.1372,0.1384,0.1424,0.1477,0.149,0.1499,0.1504,0.1612,0.1613,0.1613,0.1573,0.1571,0.1569,0,0,0,0,0,0.1025,0.1048,0.1065,0.108,0.1176,0.1233,0.1245,0.1291,0.1298,0.1312,0.1355,0.1382,0.1489,0.1482,0.1497,0.1507,0.1612,0.1613,0.1613,0.1574,0.1571,0.1569,0,0,0,0,0,0,0.0975,0.1058,0.1078,0.1124,0.1171,0.1243,0.1261,0.1287,0.1333,0.1335,0.139,0.1405,0.1448,0.1482,0.1473,0.1541,0.1553,0.1556,0.1518,0.1516,0.1514,0.1505,0.1508,0,0,0,0,0,0.097,0.101,0.108,0.1114,0.1136,0.1194,0.1221,0.1252,0.1303,0.1323,0.137,0.1418,0.1463,0.1491,0.1536,0.1578,0.1594,0.1592,0.159,0.1588,0.159,0.1614,0.1614,0.1615,0.1615,0.1615,0,0,0.0959,0.1009,0.1031,0.1105,0.1145,0.1185,0.1211,0.1252,0.1282,0.133,0.1378,0.1414,0.1471,0.1516,0.1538,0.1546,0.1593,0.1588,0.1586,0.159,0.1615,0.1615,0.1615,0.1615,0.1615,0.1615,0,0,0.0959,0.1001,0.1034,0.1073,0.1133,0.1172,0.1179,0.1247,0.1273,0.1322,0.1358,0.1395,0.147,0.1509,0.1539,0.1553,0.1579,0.1566,0.1555,0.1578,0.1578,0.1578,0.1583,0.1584,0.1568,0.1568,0.1568,0,0.0938,0.0999,0.1047,0.1087,0.1118,0.1163,0.1196,0.1232,0.1303,0.1324,0.1331,0.1426,0.1468,0.1523,0.1526,0.1548,0.1559,0.1558,0.1574,0.1575,0.1576,0.1581,0.1582,0.1566,0.1566,0.1566,0.1566,0,0.097,0.1012,0.1031,0.1099,0.1133,0.1169,0.1222,0.125,0.1278,0.1315,0.1364,0.1416,0.1471,0.1486,0.1514,0.1545,0.1547,0.1563,0.1576,0.1573,0.1579,0.1581,0.1563,0.1564,0.1564,0.1565,0,0,0.0944,0.1037,0.1043,0.1074,0.1143,0.1177,0.1214,0.1268,0.1291,0.1339,0.1371,0.1434,0.1449,0.1482,0.1515,0.1535,0.1542,0.1549,0.1551,0.1546,0.1578,0.1566,0.1567,0.1559,0.156,0.156,0.1574,0,0.0954,0.1024,0.1067,0.112,0.1159,0.1201,0.1234,0.1279,0.1314,0.1353,0.1392,0.1435,0.1452,0.1472,0.1494,0.1536,0.1549,0.1536,0.159,0.1591,0.1575,0.1571,0.1558,0.1568,0.1576,0.1577,0.1577,0,0.0975,0.1021,0.1077,0.1141,0.1159,0.1188,0.1241,0.1277,0.1329,0.1353,0.139,0.1423,0.1463,0.1472,0.1529,0.1519,0.1543,0.1567,0.1569,0.1576,0.1584,0.1578,0.1573,0.1574,0.1581,0.1581,0.158,0,0.095,0.1026,0.107,0.1095,0.1171,0.119,0.1222,0.1274,0.1304,0.1349,0.1369,0.1419,0.1446,0.1484,0.1529,0.1531,0.1581,0.1594,0.1603,0.1601,0.1612,0.1611,0.1611,0.1627,0.1627,0.1627,0.1627,0,0.0957,0.099,0.1059,0.1086,0.1123,0.1173,0.1208,0.1244,0.129,0.1324,0.1363,0.1394,0.1451,0.1489,0.1524,0.1566,0.1578,0.1598,0.1607,0.1595,0.1592,0.1612,0.1613,0.1627,0.1627,0.1627,0.1627,0,0.0936,0.0984,0.1034,0.1101,0.1119,0.1143,0.1201,0.1228,0.1265,0.1307,0.132,0.1378,0.1425,0.1473,0.1536,0.1559,0.16,0.1612,0.1582,0.1587,0.1593,0.1592,0.1607,0.1611,0.1623,0.1623,0.1623,0,0.0938,0.0964,0.1034,0.1059,0.1091,0.1131,0.1162,0.1211,0.1241,0.1301,0.1321,0.137,0.1412,0.1484,0.1532,0.158,0.1594,0.1596,0.1602,0.1588,0.1594,0.1592,0.1595,0.1594,0.1593,0.1593,0.1593,0,0.0936,0.0958,0.1,0.105,0.1085,0.1127,0.117,0.1189,0.1246,0.1278,0.1326,0.1358,0.1422,0.147,0.1524,0.1557,0.1584,0.159,0.1595,0.1583,0.1565,0.1575,0.1577,0.159,0.159,0.1591,0.1591,0.1591,0.0926,0.0951,0.1004,0.105,0.1087,0.1126,0.1155,0.1195,0.1236,0.1292,0.1318,0.1366,0.1417,0.1491,0.1523,0.1561,0.1569,0.1576,0.1578,0.1579,0.1576,0.1558,0.1571,0.1571,0.1571,0.1572,0.1572,0,0.0926,0.0962,0.1003,0.1063,0.1098,0.112,0.1169,0.1197,0.1239,0.1284,0.1324,0.1378,0.1425,0.1476,0.1525,0.1546,0.156,0.1557,0.1556,0.1563,0.1566,0.1557,0.1545,0.1545,0.1545,0.1545,0.1545,0.1545,0.093,0.0974,0.1002,0.1063,0.1099,0.1146,0.1172,0.1208,0.1244,0.1303,0.1342,0.1375,0.1422,0.1475,0.1519,0.1532,0.1549,0.1543,0.156,0.1561,0.1563,0.1565,0.1557,0.1546,0.1546,0.1555,0.1555,0.1555]},{"header":{"parameterUnit":"m.s-1","parameterCategory":1,"la1":30.2991,"la2":30.254,"lo1":-89.0895,"lo2":-89.0444,"dy":0.0017,"dx":0.0017,"nx":28,"ny":28,"refTime":"2025-07-19T03:00:00:Z","depth":0,"parameterNumber":3,"parameterNumberName":"V-component_of_WINDS"},"data":[0,0,0,0,0,0,0,0,0,0,0,0,0,0,0,0,0,0,0,0,0,0,0,0,0,0,0,0,0,0,0,0,0,0,0,0,0,0,0,0,0,0,0,0,0,0,0,0,0,0,0,0,0,0,0,0,0,0,5.1773,5.1773,0,5.1727,5.1726,5.1726,5.165,5.1648,5.1647,5.1646,5.1598,5.1598,5.1598,0,0,0,0,0,0,0,0,0,0,0,0,0,5.1797,5.1797,5.1773,5.1773,5.1772,5.1727,5.1726,5.1726,5.165,5.1648,5.1647,5.1645,5.1598,5.1598,5.1598,0,0,0,0,0,0,0,0,0,0,0,0,0,5.1773,5.1797,5.1774,5.1729,5.1725,5.1727,5.1726,5.1725,5.165,5.1648,5.1646,5.1644,5.1598,5.1598,5.1598,5.164,0,0,5.1598,5.1598,0,0,0,0,0,0,0,0,5.1774,5.1772,5.1736,5.1732,5.1727,5.1692,5.1717,5.1697,5.1651,5.1679,5.1646,5.1643,5.1631,5.1628,5.1624,5.1638,5.1635,5.1598,5.1598,5.1598,5.1598,0,0,0,0,0,0,0,5.1776,5.1773,5.1755,5.1736,5.173,5.1712,5.1706,5.1713,5.1667,5.1676,5.167,5.1666,5.1628,5.1624,5.1622,5.1635,5.1598,5.1598,5.1598,5.1598,5.1681,5.1683,0,0,0,0,0,0,5.1784,5.1775,5.1756,5.1754,5.1746,5.1713,5.1706,5.1705,5.1667,5.1659,5.1668,5.1663,5.1625,5.1622,5.162,5.1666,5.1598,5.1598,5.1598,5.1678,5.1681,5.1683,0,0,0,0,0,0,5.1785,5.1783,5.1758,5.1763,5.1758,5.1715,5.1714,5.1706,5.1701,5.166,5.1652,5.1672,5.1623,5.162,5.1635,5.1664,5.1598,5.1598,5.1676,5.1679,5.1682,5.176,0,0,0,0,0,0,5.1786,5.1784,5.1799,5.1764,5.1758,5.1775,5.1716,5.1706,5.1702,5.1695,5.1662,5.1655,5.1621,5.1636,5.1636,5.1663,5.1598,5.1673,5.1677,5.1681,5.1754,5.1765,5.1775,0,0,0,0,0,5.1787,5.1823,5.18,5.1799,5.1777,5.1776,5.1773,5.1734,5.1704,5.1719,5.1693,5.1656,5.1661,5.1638,5.1637,5.1665,5.1671,5.1676,5.1681,5.175,5.1763,5.1774,0,0,0,0,0,0,5.1863,5.1817,5.1792,5.1817,5.1801,5.1764,5.1781,5.1749,5.1741,5.1735,5.1686,5.168,5.1701,5.1684,5.166,5.1703,5.166,5.1665,5.1713,5.1725,5.1735,5.1738,5.1598,0,0,0,0,0,5.1882,5.1886,5.1846,5.1872,5.1866,5.1825,5.1824,5.1795,5.1776,5.1769,5.1744,5.1727,5.1725,5.1724,5.172,5.1752,5.1744,5.1771,5.1781,5.1789,5.1794,5.1809,5.1821,5.17,5.1699,5.1699,0,0,5.1923,5.1899,5.1904,5.1887,5.1871,5.1876,5.182,5.1827,5.183,5.177,5.1783,5.1764,5.1742,5.1766,5.1776,5.1753,5.1825,5.1795,5.1802,5.1802,5.1815,5.1827,5.1837,5.1703,5.1702,5.1702,0,0,5.1999,5.1981,5.2001,5.1986,5.1963,5.1936,5.1941,5.1908,5.1894,5.1906,5.1861,5.1864,5.1861,5.1847,5.184,5.1912,5.1878,5.1912,5.1964,5.198,5.199,5.1998,5.2023,5.2033,5.1917,5.1917,5.1917,0,5.2052,5.2057,5.2015,5.2025,5.2019,5.1966,5.1985,5.1973,5.195,5.1947,5.1923,5.1918,5.19,5.192,5.1937,5.1933,5.1937,5.1915,5.1992,5.2,5.2007,5.203,5.204,5.1922,5.1921,5.1921,5.192,0,5.2124,5.2128,5.2147,5.2126,5.2122,5.2138,5.2098,5.2099,5.2071,5.2047,5.206,5.2037,5.2026,5.2029,5.2002,5.2046,5.2032,5.2001,5.1956,5.2023,5.2044,5.2053,5.1928,5.1926,5.1925,5.1924,0,0,5.2245,5.2201,5.2209,5.2199,5.217,5.2172,5.2185,5.2176,5.2178,5.2164,5.2173,5.2173,5.2143,5.2135,5.2106,5.212,5.2178,5.2086,5.2085,5.2103,5.2224,5.2248,5.2259,5.2155,5.2157,5.2158,5.2226,0,5.2315,5.2334,5.2297,5.2325,5.2328,5.2278,5.2289,5.2273,5.2251,5.2251,5.2226,5.2226,5.2188,5.2182,5.2194,5.2169,5.2202,5.2163,5.2163,5.2164,5.217,5.227,5.2295,5.2361,5.2234,5.2236,5.2237,0,5.2398,5.2388,5.2417,5.2387,5.2387,5.2398,5.2386,5.2387,5.2367,5.235,5.2342,5.2307,5.2318,5.2276,5.229,5.2265,5.2263,5.225,5.2252,5.225,5.2204,5.227,5.238,5.239,5.2249,5.2248,5.2247,0,5.2483,5.2478,5.2494,5.2487,5.2452,5.2461,5.2447,5.2425,5.2422,5.2412,5.2409,5.2401,5.2396,5.239,5.2354,5.2327,5.2373,5.2328,5.2358,5.2359,5.2369,5.2369,5.248,5.237,5.237,5.2369,5.2369,0,5.2564,5.2584,5.2532,5.2542,5.2562,5.252,5.2541,5.2522,5.2503,5.2509,5.2465,5.2471,5.2424,5.2425,5.2397,5.2412,5.2411,5.2397,5.2389,5.2401,5.2402,5.2398,5.2392,5.2372,5.2371,5.2371,5.237,0,5.2662,5.2628,5.2643,5.2609,5.2601,5.2617,5.2588,5.2596,5.2571,5.2579,5.2578,5.254,5.2539,5.2503,5.2494,5.2476,5.2503,5.2487,5.2509,5.2504,5.2536,5.2534,5.2648,5.266,5.2543,5.2544,5.2545,0,5.2716,5.2729,5.2697,5.2698,5.2686,5.2687,5.2684,5.2643,5.2641,5.262,5.2631,5.2626,5.262,5.2621,5.2592,5.2586,5.2569,5.2609,5.2567,5.2578,5.2569,5.2568,5.2569,5.2618,5.262,5.2621,5.2622,0,5.2814,5.2797,5.2794,5.2785,5.2782,5.2773,5.2761,5.2764,5.2719,5.272,5.2718,5.2714,5.2705,5.2701,5.2689,5.2675,5.2641,5.2635,5.2642,5.2653,5.2665,5.2659,5.2533,5.2633,5.2632,5.2631,5.263,5.263,5.2891,5.2901,5.288,5.2878,5.2865,5.2855,5.2861,5.2837,5.2835,5.2825,5.2802,5.2804,5.2784,5.2765,5.2753,5.2755,5.2734,5.2744,5.2746,5.2749,5.2755,5.2666,5.2752,5.2752,5.2752,5.2751,5.2751,0,5.2987,5.2971,5.297,5.2955,5.2953,5.2922,5.2908,5.2908,5.2911,5.2896,5.2891,5.289,5.2886,5.2857,5.285,5.2856,5.2841,5.2856,5.2855,5.2852,5.2774,5.2769,5.2869,5.2869,5.2869,5.2869,5.2869,5.2869,5.3037,5.3052,5.3032,5.304,5.3024,5.3026,5.3021,5.3012,5.2999,5.2999,5.2996,5.2978,5.2957,5.2948,5.2943,5.2935,5.2934,5.2954,5.2941,5.2869,5.2857,5.2846,5.2841,5.2955,5.2955,5.3018,5.3019,5.3019]}]]